Location: City of Moscow
(46.7306°N, 116.9989°W)
Time: 04:46:56
(UTC+00:00)

Cosmos 1892 Rocket - Pass Details

Date: 11 December 2025
Orbit: 600 x 626 km, 82.5° (Epoch: 13 January)

Event Time Altitude Azimuth Distance (km) Brightness Sun altitude
Rises 12:36:49 0° 179° (S) 2,863 7.1 -27.4°
Reaches altitude 10° 12:39:02 10° 176° (S) 1,967 6.2 -27.0°
Maximum altitude 12:43:20 63° 95° (E) 692 3.9 -26.3°
Drops below altitude 10° 12:47:42 10° 15° (NNE) 1,999 6.2 -25.6°
Sets 12:49:58 0° 13° (NNE) 2,914 7.1 -25.2°
